EW4557 Weather Reports


Display with metric or nautical units.
time (UTC)temp
F
wind
direction
speed
MPH
gust
MPH
rain 1hr
in
rain 24hr
in
rain mn
in
humidity
%
barometer
mb
20260507200516 68 0 4.0 10.0 0.00 0.12 0.01 33 1018.3
20260507195557 68 0 2.0 6.0 0.00 0.12 0.01 32 1018.8
20260507193637 66 0 3.0 9.0 0.00 0.12 0.01 36 1019.0
20260507192516 65 0 3.0 10.0 0.00 0.12 0.01 33 1018.8
20260507190516 64 0 5.0 12.0 0.00 0.12 0.01 41 1019.3
20260507185516 64 0 3.0 9.0 0.00 0.12 0.01 42 1019.5
20260507183516 63 0 4.0 9.0 0.00 0.12 0.01 47 1019.9
20260507182556 62 0 3.0 10.0 0.00 0.12 0.01 47 1020.2
20260507180558 61 0 6.0 15.0 0.00 0.12 0.01 52 1020.4
20260507175556 60 0 4.0 11.0 0.00 0.12 0.01 53 1020.5
20260507174516 60 0 6.0 12.0 0.00 0.12 0.01 55 1020.8
20260507173516 59 0 6.0 12.0 0.00 0.12 0.01 56 1020.9
20260507172556 58 0 7.0 13.0 0.00 0.12 0.01 58 1020.9
20260507170516 57 0 8.0 13.0 0.00 0.12 0.01 61 1021.2
20260507164556 55 0 8.0 15.0 0.00 0.12 0.01 65 1021.1
20260507163516 55 0 10.0 15.0 0.00 0.12 0.01 66 1021.2
20260507162516 54 0 5.0 13.0 0.00 0.12 0.01 71 1021.2
20260507161516 53 0 7.0 16.0 0.00 0.12 0.01 72 1021.2
20260507160556 52 0 6.0 13.0 0.00 0.12 0.01 75 1021.3
20260507155516 51 0 5.0 11.0 0.00 0.12 0.01 78 1021.1
20260507154516 50 0 3.0 8.0 0.00 0.12 0.01 83 1021.3
20260507151636 46 0 4.0 9.0 0.00 0.12 0.01 88 1021.3
20260507150556 45 0 3.0 8.0 0.00 0.12 0.01 91 1021.2
20260507145516 44 0 3.0 8.0 0.00 0.12 0.01 91 1021.3
20260507144516 44 0 3.0 6.0 0.00 0.12 0.01 91 1021.3
20260507143636 43 0 3.0 6.0 0.00 0.12 0.01 91 1021.1
20260507142516 43 0 4.0 9.0 0.00 0.12 0.01 91 1021.4
20260507141636 43 0 3.0 8.0 0.00 0.12 0.01 92 1021.4
20260507140636 42 0 4.0 8.0 0.00 0.12 0.01 92 1021.5
20260507135516 42 0 5.0 10.0 0.00 0.12 0.01 93 1021.5
20260507133516 42 0 3.0 9.0 0.00 0.12 0.01 93 1021.2
20260507132636 41 0 2.0 4.0 0.00 0.12 0.01 93 1021.0
20260507131516 41 0 1.0 3.0 0.00 0.12 0.01 94 1021.1
20260507130556 41 0 1.0 4.0 0.00 0.12 0.01 94 1021.0
20260507125515 40 0 1.0 5.0 0.00 0.12 0.01 94 1020.6
20260507124515 40 0 0.0 4.0 0.00 0.12 0.01 94 1020.7
20260507123515 39 0 0.0 3.0 0.00 0.12 0.01 94 1020.7
20260507121516 37 0 0.0 1.0 0.00 0.12 0.01 93 1020.5
20260507120555 37 0.0 0.0 0.00 0.12 0.01 93 1020.8
20260507114515 38 0 0.0 2.0 0.00 0.12 0.01 93 1021.6
20260507113555 38 0 0.0 2.0 0.00 0.12 0.01 93 1022.1
20260507112515 37 0 0.0 2.0 0.00 0.12 0.01 93 1022.4
20260507111556 37 0.0 1.0 0.00 0.12 0.01 94 1022.4
20260507110515 36 0 0.0 2.0 0.00 0.12 0.01 94 1022.5
20260507105555 34 0 0.0 2.0 0.00 0.12 0.01 93 1022.3
20260507103555 33 0.0 1.0 0.00 0.12 0.01 92 1022.7
20260507102635 33 0.0 0.0 0.00 0.12 0.01 92 1022.7
20260507101516 34 0.0 0.0 0.00 0.12 0.01 92 1022.6
20260507100515 33 0 0.0 3.0 0.00 0.12 0.01 91 1022.6
20260507095515 34 0.0 0.0 0.00 0.12 0.01 91 1022.6
20260507094555 34 0.0 0.0 0.00 0.12 0.01 91 1022.6
20260507093555 34 0.0 0.0 0.00 0.12 0.01 91 1022.5
20260507092515 34 0.0 0.0 0.00 0.12 0.01 91 1022.6
20260507091515 35 0.0 0.0 0.00 0.12 0.01 92 1022.8
20260507090515 34 0.0 0.0 0.00 0.12 0.01 91 1022.6
20260507085515 34 0.0 0.0 0.00 0.12 0.01 91 1022.4
20260507084635 35 0.0 0.0 0.00 0.12 0.01 91 1022.6
20260507083635 35 0.0 0.0 0.00 0.12 0.01 91 1022.7
20260507081555 35 0.0 0.0 0.00 0.12 0.01 91 1023.0
20260507080515 35 0.0 0.0 0.01 0.12 0.01 91 1023.1
20260507075555 35 0.0 0.0 0.01 0.12 0.01 91 1023.1
20260507074635 36 0.0 0.0 0.01 0.12 0.01 91 1023.2
20260507073515 36 0.0 0.0 0.01 0.12 0.01 90 1023.1
20260507072515 36 0.0 0.0 0.01 0.12 0.01 90 1023.1
20260507071635 36 0.0 0.0 0.01 0.12 0.01 90 1022.9
20260507070635 37 0.0 0.0 0.00 0.11 0.00 90 1023.1
20260507065555 37 0.0 0.0 0.00 0.11 0.00 90 1023.1
20260507064555 37 0.0 0.0 0.00 0.11 0.00 90 1022.8
20260507061516 38 0.0 0.0 0.00 0.11 0.00 90 1022.1
20260507060557 38 0.0 0.0 0.00 0.11 0.00 90 1022.4
20260507055516 38 0.0 0.0 0.00 0.11 0.11 90 1022.1
20260507054516 39 0.0 0.0 0.00 0.11 0.11 91 1022.0
20260507053556 39 0.0 0.0 0.00 0.11 0.11 91 1021.9
20260507052516 39 0.0 0.0 0.00 0.11 0.11 91 1021.7
20260507051516 39 0.0 0.0 0.00 0.11 0.11 91 1021.6
20260507050516 39 0.0 1.0 0.00 0.11 0.11 91 1021.6
20260507045556 39 0 1.0 4.0 0.02 0.11 0.11 91 1021.3
20260507042636 40 0 0.0 5.0 0.03 0.11 0.11 91 1021.1
20260507040636 40 0 2.0 5.0 0.04 0.11 0.11 91 1020.1
20260507034516 40 0 3.0 13.0 0.01 0.08 0.08 91 1020.6
20260507033555 40 0 6.0 12.0 0.02 0.08 0.08 91 1020.2
20260507032636 40 0 5.0 10.0 0.04 0.08 0.08 91 1020.2
20260507031556 40 0 6.0 11.0 0.03 0.07 0.07 90 1019.6
20260507030515 40 0 6.0 13.0 0.03 0.07 0.07 90 1019.4
20260507025516 40 0 7.0 14.0 0.03 0.07 0.07 90 1019.1
20260507024555 40 0 9.0 15.0 0.03 0.07 0.07 90 1018.8
20260507023555 40 0 8.0 17.0 0.02 0.06 0.06 89 1018.7
20260507022555 40 0 9.0 16.0 0.01 0.04 0.04 89 1018.3
20260507021515 40 0 7.0 12.0 0.02 0.04 0.04 88 1018.6
20260507020515 40 0 5.0 13.0 0.04 0.04 0.04 88 1018.4
20260507015635 40 0 9.0 16.0 0.04 0.04 0.04 87 1017.2
20260507014555 40 0 10.0 17.0 0.04 0.04 0.04 87 1017.3
20260507013515 40 0 11.0 15.0 0.04 0.04 0.04 87 1017.2
20260507012515 40 0 10.0 20.0 0.03 0.03 0.03 85 1017.2
20260507005635 41 0 9.0 22.0 0.00 0.00 0.00 82 1016.9
20260507004515 41 0 18.0 26.0 0.00 0.00 0.00 81 1016.6
20260507003635 41 0 16.0 24.0 0.00 0.00 0.00 80 1016.1
20260507002555 42 0 14.0 23.0 0.00 0.00 0.00 79 1015.7
20260507001515 43 0 15.0 24.0 0.00 0.00 0.00 77 1015.6
20260507000515 44 0 17.0 29.0 0.00 0.00 0.00 74 1015.5
20260506235635 48 0 19.0 27.0 0.00 0.00 0.00 75 1015.4
20260506234555 50 0 12.0 24.0 0.00 0.00 0.00 70 1015.5
20260506233555 53 0 18.0 27.0 0.00 0.00 0.00 62 1015.3
20260506232555 56 0 15.0 27.0 0.00 0.00 0.00 56 1015.3
20260506231515 56 0 13.0 21.0 0.00 0.00 0.00 55 1015.0
20260506230515 57 0 14.0 23.0 0.00 0.00 0.00 54 1014.9
20260506224555 60 0 10.0 22.0 0.00 0.00 0.00 50 1014.1
20260506223555 61 0 5.0 18.0 0.00 0.00 0.00 49 1014.0
20260506222635 61 0 10.0 18.0 0.00 0.01 0.00 49 1013.7
20260506221515 62 0 9.0 18.0 0.00 0.01 0.00 47 1013.6
20260506220515 62 0 11.0 17.0 0.00 0.01 0.00 47 1013.6
20260506215515 62 0 8.0 14.0 0.00 0.01 0.00 49 1013.5
20260506214555 61 0 7.0 14.0 0.00 0.01 0.00 50 1013.7
20260506213515 61 0 6.0 14.0 0.00 0.01 0.00 50 1014.0
20260506212555 61 0 7.0 16.0 0.00 0.01 0.00 50 1013.9
20260506211517 62 0 5.0 13.0 0.00 0.01 0.00 50 1014.1
20260506210557 60 0 5.0 14.0 0.00 0.01 0.00 51 1013.8
20260506205517 59 0 9.0 13.0 0.00 0.01 0.00 53 1013.7
20260506204516 60 0 7.0 13.0 0.00 0.01 0.00 53 1013.9
20260506202557 59 0 5.0 10.0 0.00 0.01 0.00 53 1014.1
20260506201516 60 0 6.0 14.0 0.00 0.01 0.00 52 1014.2